SCP
0 0 0 0 0 0 0 0 0 0 0 0 0 0 0 0 0 0 0 0 0 0 0 0 0 0 0 0 0 0 0 0 0 0 0 0 0 0 0 0 0 0 0
0 0 0 0 0 0 0 0 0 0 0 0 0 0 0 0 0 0 0 0 0 0 0 0 0 0 0 0 0 0 0 0 0 0 0 0 0 0 0 0 0 0 0
0 0 0 0 0 0 0 0 0 0 0 0 0 0 0 0 0 0 0 0 0 0 0 0 0 0 0 0 0 0 0 0 0 0 0 0 0 0 0 0 0 0 0
0 0 0 0 0 0 0 0 0 0 0 0 0 0 0 0 0 0 0 0 0 0 0 0 0 0 0 0 0 0 0 0 0 0 0 0 0 0 0 0 0 0 0
0 0 0 0 0 0 0 0 0 0 0 0 0 0 0 0 0 0 0 0 0 0 0 0 0 0 0 0 0 0 0 0 0 0 0 0 0 0 0 0 0 0 0
0 0 0 0 0 0 0 0 0 0 0 0 0 0 0 0 0 0 0 0 0 0 0 0 0 0 0 0 0 0 0 0 0 0 0 0 0 0 0 0 0 0 0
0 0 0 0 0 0 0 0 0 0 0 0 0 0 0 0 0 0 0 0 0 0 0 0 0 0 0 0 0 0 0 0 0 0 0 0 0 0 0 0 0 0 0
0 0 0 0 0 0 0 0 0 0 0 0 0 0 0 0 0 0 0 0 0 0 0 0 0 0 0 0 0 0 0 0 0 0 0 0 0 0 0 0 0 0 0
0 0 0 0 0 0 0 0 0 0 0 0 0 0 0 0 0 0 0 0 0 0 0 0 0 0 0 0 0 0 0 0 0 0 0 0 0 0 0 0 0 0 0
0 0 0 0 0 0 0 0 0 0 0 0 0 0 0 0 0 0 0 0 0 0 0 0 0 0 0 0 0 0 0 0 0 0 0 0 0 0 0 0 0 0 0
0 0 0 0 0 0 0 0 0 0 0 0 0 0 0 0 0 0 0 0 0 0 0 0 0 0 0 0 0 0 0 0 0 0 0 0 0 0 0 0 0 0 0
0 0 0 0 0 0 0 0 0 0 0 0 0 0 0 0 0 0 0 0 0 0 0 0 0 0 0 0 0 0 0 0 0 0 0 0 0 0 0 0 0 0 0
0 0 0 0 0 0 0 0 0 0 0 0 0 0 0 0 0 0 0 0 0 0 0 0 0 0 0 0 0 0 0 0 0 0 0 0 0 0 0 0 0 0 0
0 0 0 0 0 0 0 0 0 0 0 0 0 0 0 0 0 0 0 0 0 0 0 0 0 0 0 0 0 0 0 0 0 0 0 0 0 0 0 0 0 0 0
0 0 0 0 0 0 0 0 0 0 0 0 0 0 0 0 0 0 0 0 0 0 0 0 0 0 0 0 0 0 0 0 0 0 0 0 0 0 0 0 0 0 0
0 0 0 0 0 0 0 0 0 0 0 0 0 0 0 0 0 0 0 0 0 0 0 0 0 0 0 0 0 0 0 0 0 0 0 0 0 0 0 0 0 0 0
0 0 0 0 0 0 0 0 0 0 0 0 0 0 0 0 0 0 0 0 0 0 0 0 0 0 0 0 0 0 0 0 0 0 0 0 0 0 0 0 0 0 0
0 0 0 0 0 0 0 0 0 0 0 0 0 0 0 0 0 0 0 0 0 0 0 0 0 0 0 0 0 0 0 0 0 0 0 0 0 0 0 0 0 0 0
0 0 0 0 0 0 0 0 0 0 0 0 0 0 0 0 0 0 0 0 0 0 0 0 0 0 0 0 0 0 0 0 0 0 0 0 0 0 0 0 0 0 0
0 0 0 0 0 0 0 0 0 0 0 0 0 0 0 0 0 0 0 0 0 0 0 0 0 0 0 0 0 0 0 0 0 0 0 0 0 0 0 0 0 0 0
0 0 0 0 0 0 0 0 0 0 0 0 0 0 0 0 0 0 0 0 0 0 0 0 0 0 0 0 0 0 0 0 0 0 0 0 0 0 0 0 0 0 0
0 0 0 0 0 0 0 0 0 0 0 0 0 0 0 0 0 0 0 0 0 0 0 0 0 0 0 0 0 0 0 0 0 0 0 0 0 0 0 0 0 0 0
0 0 0 0 0 0 0 0 0 0 0 0 0 0 0 0 0 0 0 0 0 0 0 0 0 0 0 0 0 0 0 0 0 0 0 0 0 0 0 0 0 0 0
0 0 0 0 0 0 0 0 0 0 0 0 0 0 0 0 0 0 0 0 0 0 0 0 0 0 0 0 0 0 0 0 0 0 0 0 0 0 0 0 0 0 0
0 0 0 0 0 0 0 0 0 0 0 0 0 0 0 0 0 0 0 0 0 0 0 0 0 0 0 0 0 0 0 0 0 0 0 0 0 0 0 0 0 0 0
0 0 0 0 0 0 0 0 0 0 0 0 0 0 0 0 0 0 0 0 0 0 0 0 0 0 0 0 0 0 0 0 0 0 0 0 0 0 0 0 0 0 0
Wind_Speed
4 5 7 6 7 7 8 8 8 8 9 8 8 8 8 8 8 8 9 9 9 10 11 11 11 11 11 11 11 12 11 11 11 11 11 12 13 13 13 13 12 11 14
4 6 8 6 7 8 8 8 8 8 8 8 8 8 7 8 8 8 9 9 10 10 10 10 11 11 11 11 11 11 11 11 11 10 11 11 12 13 12 10 7 9 13
4 7 9 7 7 8 8 8 8 8 8 7 7 7 7 8 8 8 9 10 10 10 10 10 10 11 11 11 11 11 10 10 10 9 9 8 11 13 12 11 11 12 12
5 7 8 8 8 8 8 8 8 8 8 7 7 8 8 8 8 9 10 10 10 10 10 10 10 10 10 10 10 10 9 10 9 8 6 7 9 14 12 12 11 11 11
7 7 10 8 8 8 7 7 7 7 7 7 7 8 8 8 8 9 10 10 10 10 10 10 10 10 9 9 9 9 9 9 9 7 6 6 8 12 12 11 11 11 11
8 7 10 9 8 7 7 7 6 6 7 7 7 8 8 8 9 10 10 9 9 10 9 9 9 9 8 9 9 8 8 8 8 6 6 6 7 11 11 11 11 11 11
7 7 9 9 8 7 7 7 6 6 6 6 7 7 7 8 8 9 9 9 9 9 9 9 9 8 8 8 8 7 7 6 4 5 5 6 8 10 10 10 10 10 10
7 7 9 10 8 7 7 6 6 6 6 6 6 6 7 8 9 8 9 9 9 9 8 8 8 7 7 7 7 6 6 4 5 6 5 6 9 9 9 9 9 10 10
6 6 6 7 8 8 7 6 5 5 6 5 6 5 6 7 8 8 8 8 8 8 8 7 7 6 7 6 6 5 5 2 2 4 5 6 10 8 8 9 9 9 9
6 5 5 5 5 4 6 8 6 5 5 5 5 5 5 7 8 7 8 8 7 7 7 6 6 7 6 6 5 5 4 4 3 5 4 8 10 8 7 8 8 8 8
5 4 4 4 4 4 4 6 6 7 5 5 6 6 5 4 5 7 8 7 7 7 6 5 6 6 5 6 6 4 4 2 4 3 4 10 9 8 7 6 7 7 8
5 4 4 4 4 3 3 3 3 3 4 3 3 3 3 3 3 4 9 7 6 7 7 6 5 5 4 4 6 5 2 3 3 3 6 9 8 7 7 6 6 7 7
5 4 4 4 3 2 2 2 2 1 2 3 3 3 2 2 3 3 3 5 5 6 5 6 5 2 3 2 2 2 1 2 2 3 6 8 6 6 6 6 6 6 6
4 4 4 4 3 2 2 1 1 2 2 2 3 2 2 2 2 2 2 2 2 2 3 2 2 2 3 3 2 1 2 1 2 2 5 7 6 5 5 5 5 6 6
4 3 4 3 3 2 1 0 1 1 2 3 2 3 2 2 2 3 2 2 2 2 3 2 3 3 2 2 2 2 2 2 2 2 4 7 6 5 5 4 5 6 6
3 3 3 2 3 2 2 1 1 1 2 2 2 3 2 2 2 2 2 2 2 2 2 2 3 2 2 2 2 2 1 1 2 1 2 5 7 5 4 4 5 5 6
3 3 2 2 3 2 1 1 1 1 1 2 2 3 2 2 2 2 2 2 2 2 2 2 2 2 2 2 3 2 2 2 1 1 1 1 4 7 5 4 4 5 6
3 3 2 2 3 2 1 0 0 1 1 1 2 2 3 2 2 2 2 2 2 1 2 2 2 2 2 2 2 1 2 2 2 1 1 1 1 2 5 5 4 4 6
3 2 2 2 2 1 1 1 1 1 1 1 1 2 2 2 2 2 1 1 1 2 2 1 3 1 2 2 2 2 2 2 2 2 1 1 2 2 2 6 6 5 5
3 3 2 3 2 1 1 1 1 1 1 1 2 2 2 2 2 1 2 2 1 2 2 2 2 2 1 1 1 2 1 1 1 2 1 2 2 2 2 3 5 6 5
4 4 3 2 2 1 1 1 1 1 1 2 2 2 2 1 2 1 1 2 1 2 1 2 2 3 2 2 2 2 2 2 2 1 1 1 2 2 2 3 2 2 5
5 4 4 3 3 2 1 1 0 0 1 1 1 2 2 2 2 2 2 1 2 1 2 2 1 1 2 2 1 2 2 3 2 2 1 1 1 1 2 3 3 2 2
5 5 4 3 3 3 2 2 2 2 1 1 2 2 2 2 3 2 2 1 1 1 2 1 1 2 1 2 1 1 1 1 2 3 2 1 1 1 1 2 3 3 3
6 6 4 4 4 3 3 2 2 1 1 1 1 2 2 2 2 2 2 1 1 1 2 2 2 1 2 2 1 1 2 1 1 2 2 2 2 1 1 1 2 3 3
7 6 5 5 4 4 3 3 3 2 1 1 1 2 2 2 2 2 2 2 2 2 1 1 1 2 2 2 1 1 1 1 2 1 1 2 2 2 1 2 2 2 3
7 6 6 6 5 5 4 4 4 3 3 2 2 2 2 2 2 3 2 2 2 1 2 2 2 3 1 1 1 1 1 1 1 0 1 2 2 2 1 1 2 2 2
Wind_Direction
84 90 105 109 110 106 106 107 107 106 108 107 107 111 111 110 109 111 112 110 114 117 121 124 127 129 127 125 124 122 123 122 122 125 126 127 131 136 139 144 150 135 127
95 106 115 113 115 110 106 106 104 103 103 103 105 106 103 105 105 108 114 114 113 113 117 121 123 126 125 124 123 122 125 126 127 130 132 131 134 138 138 138 131 122 135
109 120 128 117 117 110 105 104 102 102 100 98 101 103 101 98 101 106 113 114 111 110 113 115 119 121 122 121 119 120 124 127 131 138 152 138 128 134 137 136 132 133 137
111 120 114 114 116 112 107 104 102 102 98 94 93 96 95 90 91 101 110 112 110 111 112 114 117 118 120 121 120 119 123 128 136 157 148 122 123 127 133 134 136 136 139
103 109 112 117 117 113 109 105 103 101 97 94 92 92 90 89 90 96 107 110 110 110 111 113 115 117 121 122 122 123 126 133 149 167 122 121 120 129 136 138 139 140 143
113 113 110 117 116 114 112 107 100 97 96 94 94 91 88 91 93 100 105 108 109 110 108 110 112 114 119 122 123 127 133 146 172 135 124 129 122 134 142 145 144 145 148
109 109 111 116 120 117 110 109 108 102 99 98 100 98 98 98 99 102 102 100 103 107 106 107 109 110 114 118 121 127 136 165 157 119 123 121 115 133 143 147 147 148 151
105 108 113 128 129 123 119 115 112 111 109 106 106 104 107 106 104 105 104 103 104 103 103 105 109 110 117 117 120 127 137 188 147 128 120 115 115 136 144 147 150 151 153
99 104 108 120 128 137 134 120 113 114 113 113 112 109 112 116 115 111 110 110 109 107 105 106 107 111 116 118 120 127 139 191 163 125 128 117 124 135 147 148 152 154 156
93 96 107 108 108 119 122 124 127 124 123 131 130 125 134 134 131 129 128 119 116 113 112 114 117 121 124 127 123 127 151 201 143 130 124 118 131 140 149 151 153 156 157
87 88 97 98 100 110 115 126 140 142 140 158 146 151 168 140 130 136 112 119 121 116 113 114 127 128 141 141 131 143 184 166 120 111 105 113 136 145 151 155 161 166 164
96 94 92 87 92 106 108 118 128 124 126 128 111 130 133 119 114 115 119 126 128 131 133 124 126 145 179 144 143 178 177 143 131 123 111 125 142 151 157 161 166 168 170
102 100 94 91 90 90 95 108 104 110 115 126 120 123 114 129 129 125 132 141 143 153 144 135 153 147 124 100 109 140 115 125 115 109 113 131 148 160 163 164 166 170 171
101 98 92 92 81 64 59 95 128 123 124 120 119 115 111 108 107 104 111 103 114 114 111 117 118 118 107 105 103 100 123 136 112 103 116 136 154 164 170 178 172 166 169
108 103 93 86 91 95 99 330 92 114 126 120 119 118 110 122 113 109 101 101 108 112 130 128 122 116 117 134 132 111 89 96 96 121 122 137 152 163 176 186 181 175 177
115 105 103 99 106 109 120 119 77 117 128 123 116 109 124 122 118 122 128 120 113 117 110 125 121 127 126 114 121 120 119 97 92 116 136 142 152 161 174 193 191 181 177
129 121 117 119 111 112 126 152 137 119 115 121 125 128 136 131 128 139 128 139 111 113 126 137 130 136 146 138 123 118 119 102 100 107 118 143 152 158 166 179 182 179 175
130 134 145 131 122 123 112 288 112 101 109 116 119 122 126 121 142 150 130 119 119 133 126 124 150 127 116 125 125 138 133 132 138 144 137 153 154 153 154 160 165 165 170
137 146 154 143 137 140 154 170 160 129 113 117 114 108 120 137 143 140 122 102 142 110 113 130 105 114 122 119 144 146 146 144 148 140 122 131 137 162 146 142 155 157 166
145 152 164 163 149 163 163 157 158 132 141 122 114 104 118 141 141 142 135 112 112 119 123 117 123 131 142 143 128 108 116 111 132 120 149 133 139 149 146 143 158 157 161
161 166 171 183 159 167 162 183 155 137 137 127 121 115 137 136 125 131 93 112 120 111 114 137 148 152 146 141 145 134 132 124 111 127 139 131 127 131 138 144 160 158 154
173 177 178 188 184 186 157 158 123 52 119 110 103 119 135 137 142 150 146 161 127 147 160 153 159 167 155 162 191 184 160 148 146 117 143 155 137 148 151 148 148 157 178
183 186 189 188 186 188 176 172 154 157 171 137 146 134 135 146 159 158 158 173 170 199 149 164 179 180 173 172 238 286 267 116 138 132 132 131 134 152 170 144 149 146 167
188 186 187 186 188 183 185 194 196 174 154 120 147 121 135 143 160 168 170 180 219 205 164 204 161 202 215 191 166 282 329 22 262 140 142 135 146 165 155 169 150 154 168
188 185 180 182 187 185 189 185 204 208 196 179 150 137 165 152 168 179 181 193 215 219 195 220 182 232 234 257 220 198 176 189 240 218 139 150 153 147 153 171 169 165 165
187 186 182 180 186 187 192 196 203 202 206 208 191 170 187 165 161 165 190 201 219 228 211 214 211 207 233 282 290 255 231 229 227 147 173 194 148 127 139 162 191 176 172